Regional Weather Roundup
Issued by NWS

Home | Current Version | Previous Version | Graphics & Text | Print | Product List | Glossary On
Versions: 1 2 3 4 5 6 7 8 9 10 11 12 13 14 15 16 17 18 19 20 21 22 23 24 25 26 27 28 29 30 31 32 33 34 35 36 37 38 39 40 41 42 43 44 45 46 47 48 49 50
000
ASUS43 KMKX 012221
RWRWI

WISCONSIN REGIONAL WEATHER ROUNDUP
NATIONAL WEATHER SERVICE MILWAUKEE/SULLIVAN WI
500 PM CDT FRI AUG 01 2014

NOTE: "FAIR" INDICATES FEW OR NO CLOUDS BELOW 12,000 FEET WITH NO
SIGNIFICANT WEATHER AND/OR OBSTRUCTIONS TO VISIBILITY.

WIZ001-002-006>008-014>016-023>028-012300-
NORTHWEST WISCONSIN

CITY           SKY/WX    TMP DP  RH WIND       PRES   REMARKS
SUPERIOR ARPT  MOSUNNY   66  55  68 NE10      30.05S
ASHLAND        MOSUNNY   75  63  66 N7        30.07F
HAYWARD        MOSUNNY   78  54  43 VRB3      30.06F
SIREN          MOSUNNY   81  53  37 N3        30.05F HX  80
RICE LAKE      SUNNY     79  56  44 CALM      30.07F HX  80
LADYSMITH      PTSUNNY   78  57  49 N6        30.08S
EAU CLAIRE     MOSUNNY   82  61  48 N7        30.04S HX  83
MENOMONIE      PTCLDY    83  56  39 W7        30.04F HX  82
NEW RICHMOND   SUNNY     82  54  38 CALM      30.05F HX  81
OSCEOLA        SUNNY     83  57  41 W3        30.06F HX  82
$$

WIZ003>005-009-010-017-018-012300-
NORTH CENTRAL WISCONSIN

CITY           SKY/WX    TMP DP  RH WIND       PRES   REMARKS
WOODRUFF       PTSUNNY   80  51  37 NW7       30.09R
RHINELANDER    MOSUNNY   76  52  43 VRB6      30.08S
EAGLE RIVER    MOSUNNY   75  48  37 NW3       30.08S
LAND O LAKES   MOSUNNY   75  49  40 N6        30.10R
PHILLIPS       MOSUNNY   74  56  51 N8        30.08S
TOMAHAWK       MOSUNNY   76  54  45 CALM      30.07S
MEDFORD        MOSUNNY   77  58  52 N8        30.07S
MERRILL        PTSUNNY   77  61  56 W3        30.06S
$$

WIZ029-030-035-036-043>047-012300-
CENTRAL WISCONSIN

CITY           SKY/WX    TMP DP  RH WIND       PRES   REMARKS
WAUSAU         CLOUDY    71  63  75 VRB3      30.05R
MOSINEE        MOSUNNY   66  61  82 CALM      30.08R
MARSHFIELD     CLOUDY    64  57  78 SW7       30.08R
STEVENS POINT  LGT RAIN  64  60  85 SW12G18   30.10R
WAUPACA        CLOUDY    74  63  66 W3        30.05F
WAUTOMA        LGT RAIN  66  60  81 W12       30.09R
WISC RAPIDS    CLOUDY    69  59  70 E8        30.10R THUNDER
CAMP DOUGLAS   MOSUNNY   78  62  56 W8        30.06R HX  80
$$

WIZ011>013-019>022-031-037>040-048>050-012300-
NORTHEAST WISCONSIN

CITY           SKY/WX    TMP DP  RH WIND       PRES   REMARKS
ANTIGO         CLOUDY    74  57  54 NE5       30.07S
STURGEON BAY   PTSUNNY   72  63  73 SE6       30.06S
GREEN BAY      CLOUDY    76  64  66 N3        30.04S
MANITOWOC      PTSUNNY   72  62  71 SE6       30.05R
APPLETON       CLOUDY    70  55  60 SW8       30.06S
CLINTONVILLE   CLOUDY    68  61  77 CALM      30.06R
OSHKOSH        CLOUDY    76  63  64 W6        30.05R
$$

WIZ032>034-041-042-053>061-012300-
SOUTHWEST WISCONSIN

CITY           SKY/WX    TMP DP  RH WIND       PRES   REMARKS
LA CROSSE      MOSUNNY   85  59  41 W9        30.04S HX  84
SPARTA         MOSUNNY   82  56  40 W8        30.07R HX  81
VIROQUA        FAIR      79  58  48 W6        30.07F HX  80
BOSCOBEL       SUNNY     87  59  38 NW8       30.04F HX  86
PRAIRIE DU CHI SUNNY     82  52  34 W5        30.04S HX  81
PLATTEVILLE    FAIR      81  56  41 W5        30.07S HX  81
$$

WIZ056-057-062-063-064-067-068-012300-
SOUTH CENTRAL WISCONSIN

CITY           SKY/WX    TMP DP  RH WIND       PRES   REMARKS
BARABOO/DELLS  PTSUNNY   73  57  56 E13       30.07R
LONE ROCK      SUNNY     85  60  42 NW7       30.03F HX  85
WATERTOWN      PTSUNNY   77  60  55 N9        30.03S THUNDER
MADISON        TSTM      75  59  57 NE40G52   30.06R SQUALL
MIDDLETON      FAIR      84  51  31 NW6       30.05S HX  82
MONROE         SUNNY     81  54  39 CALM      30.05F HX  80
JANESVILLE     MOSUNNY   84  48  28 NW6       30.04S HX  82
$$

WIZ051-052-058>065-066-070>072-012300-
SOUTHEAST WISCONSIN

CITY           SKY/WX    TMP DP  RH WIND       PRES   REMARKS
MILWAUKEE      TSTM      71  61  70 E7        30.05S
WAUKESHA       MOSUNNY   81  55  41 SW5       30.05F HX  80
MILWAUKEE/TIMM LGT RAIN  79  55  44 SE10      30.04S
RACINE         MOSUNNY   78  59  51 S14       30.07S
BURLINGTON     MOSUNNY   81  54  39 CALM      30.05S HX  80
KENOSHA        MOSUNNY   80  60  50 SE14      30.06S HX  81
FOND DU LAC    CLOUDY    75  62  64 W5        30.05S
SHEBOYGAN      PTSUNNY   73  61  65 VRB3      30.06R
WEST BEND      CLOUDY    70  46  43 N5        30.05S
JUNEAU         CLOUDY    79  53  39 NW6       30.06S THUNDER
$$

LSZ147-162-012300-
LAKE SUPERIOR

STATION/POSITION TIME  TEMP    WIND        PRES    WAVE
                       AIR SEA DIR/SP/G            HT/PER
                 (UTC) (F)     (DEG/KT/KT) (MB)    (FT/S)
W MID LAKE BUOY  2150   53 49   90/  4/  4 1018.8F   0
PORT WING        2100   65      10/  7/  8 1017.9
SAXON HARBOR     2140           CALM  /  3 1018.6S
$$

LMZ867-665-643>646-012300-
LAKE MICHIGAN

STATION/POSITION TIME  TEMP    WIND        PRES    WAVE
                       AIR SEA DIR/SP/G            HT/PER
                 (UTC) (F)     (DEG/KT/KT) (MB)    (FT/S)
N MID LAKE BUOY  2150   63 62  120/  2/  2 1017.7R   0
NORTHPORT PIER   2100   64     110/  6/  7 1017.6S
SISTER BAY       2126   75     110/ 10/ 13   N/A
ALGOMA LAKESHORE 2151          220/  2/  6   N/A
KEWAUNEE LAKESHO 2200   67     160/  6/  6 1017.1R
SHEBOYGAN LAKESH 2200   70     200/ 11/ 11 1017.8R
PORT WASHINGTON  2140   71     320/ 10/ 15 1018.3R
ATWATER BUOY     2200   70     160/ 14     1018.2F
MILWAUKEE LAKESH 2200   70     160/ 12/ 15   N/A
S MID LAKE BUOY  2150   68 66  160/  6/  8 1018.1F   0
KENOSHA   LAKESH 2200   70     170/ 10/ 12 1017.3F
$$

TC  - TEMPERATURE IN CELSIUS
VSB - VISIBILITY IN STATUTE MILES
WCI - WIND CHILL INDEX
HX  - HEAT INDEX




USA.gov is the U.S. government's official web portal to all federal, state and local government web resources and services.